FW3241 Weather Reports


time (UTC)temp
C
wind
direction
speed
KPH
gust
KPH
rain 1hr
cm
rain 24hr
cm
rain mn
cm
humidity
%
barometer
mb
20260902161553 22 164 0.0 1.6 0.00 0.00 0.00 65 1021.7
20260902154549 22 164 0.0 0.0 0.00 0.00 0.00 68 1021.8
20260902153050 22 164 0.0 0.0 0.00 0.00 0.00 71 1021.7
20260902151547 22 164 0.0 0.0 0.00 0.00 0.00 71 1021.5
20260902150045 22 164 0.0 1.6 0.00 0.00 0.00 69 1021.5
20260902144541 21 164 0.0 0.0 0.00 0.00 0.00 73 1021.4
20260902143040 21 164 0.0 0.0 0.00 0.00 0.00 74 1021.3
20260902141549 21 164 0.0 0.0 0.00 0.00 0.00 76 1021.4
20260902140036 21 164 0.0 0.0 0.00 0.00 0.00 75 1021.3
20260902134536 20 164 0.0 0.0 0.00 0.00 0.00 74 1021.3
20260902133047 20 164 0.0 0.0 0.00 0.00 0.00 74 1021.3
20260902131542 20 164 0.0 0.0 0.00 0.00 0.00 75 1021.5
20260902130034 20 164 0.0 0.0 0.00 0.00 0.00 74 1021.4
20260902124533 20 164 0.0 0.0 0.00 0.00 0.00 75 1021.3
20260902123048 20 164 0.0 0.0 0.00 0.00 0.00 75 1021.3
20260902121534 20 164 0.0 0.0 0.00 0.00 0.00 75 1021.4
20260902120035 20 164 0.0 0.0 0.00 0.00 0.00 75 1021.2
20260902114539 20 164 0.0 0.0 0.00 0.00 0.00 74 1021.1
20260902113028 20 164 0.0 0.0 0.00 0.00 0.00 74 1021.1
20260902111531 20 164 0.0 0.0 0.00 0.00 0.00 75 1020.9
20260902110027 20 164 0.0 0.0 0.00 0.00 0.00 74 1020.8
20260902104526 20 164 0.0 0.0 0.00 0.00 0.00 74 1020.8
20260902103029 20 164 0.0 0.0 0.00 0.00 0.00 75 1021.0
20260902101527 20 164 0.0 0.0 0.00 0.00 0.00 75 1020.8
20260902100023 19 164 0.0 0.0 0.00 0.00 0.00 75 1020.7
20260902094522 19 164 0.0 0.0 0.00 0.00 0.00 75 1020.5
20260902093022 19 164 0.0 0.0 0.00 0.00 0.00 75 1020.4
20260902091521 20 164 0.0 0.0 0.00 0.00 0.00 75 1020.2
20260902090030 20 164 0.0 0.0 0.00 0.00 0.00 75 1020.1
20260902084519 20 164 0.0 0.0 0.00 0.00 0.00 75 1020.1
20260902083020 20 164 0.0 0.0 0.00 0.00 0.00 75 1020.1
20260902081519 20 164 0.0 0.0 0.00 0.00 0.00 75 1020.1
20260902080017 20 164 0.0 0.0 0.00 0.00 0.00 74 1020.1
20260902074516 20 164 0.0 0.0 0.00 0.00 0.00 74 1020.0
20260902073014 20 164 0.0 0.0 0.00 0.00 0.00 73 1020.1
20260902071513 20 164 0.0 0.0 0.00 0.00 0.00 72 1020.1
20260902070012 20 164 0.0 0.0 0.00 0.00 0.00 72 1020.1
20260902064518 20 164 0.0 0.0 0.00 0.00 0.00 73 1020.2
20260902063011 20 164 0.0 0.0 0.00 0.00 0.00 73 1020.4
20260902061510 20 164 0.0 0.0 0.00 0.00 0.00 73 1020.4
20260902060009 20 164 0.0 0.0 0.00 0.00 0.00 72 1020.5
20260902054511 20 164 0.0 0.0 0.00 0.00 0.00 72 1020.8
20260902053008 20 164 0.0 0.0 0.00 0.00 0.00 72 1020.7
20260902051507 20 164 0.0 0.0 0.00 0.00 0.00 72 1020.6
20260902050008 21 164 0.0 0.0 0.00 0.00 0.00 72 1020.6
20260902044508 21 164 0.0 0.0 0.00 0.00 0.00 71 1020.4
20260902043006 21 164 0.0 0.0 0.00 0.00 0.00 71 1020.4
20260902041515 21 164 0.0 0.0 0.00 0.00 0.00 71 1020.3
20260902040000 21 164 0.0 0.0 0.00 0.00 0.00 71 1020.2
20260902034606 21 164 0.0 0.0 0.00 0.00 0.00 71 1020.2
20260902033100 21 164 0.0 0.0 0.00 0.00 0.00 71 1020.3
20260902031559 21 164 0.0 0.0 0.00 0.00 0.00 71 1020.3
20260902030101 21 164 0.0 0.0 0.00 0.00 0.00 71 1020.4
20260902024559 21 164 0.0 0.0 0.00 0.00 0.00 71 1020.5
20260902023059 21 164 0.0 0.0 0.00 0.00 0.00 71 1020.5
20260902021619 21 164 0.0 0.0 0.00 0.00 0.00 71 1020.5
20260902020058 21 164 0.0 0.0 0.00 0.00 0.00 72 1020.5
20260902014558 21 164 0.0 0.0 0.00 0.00 0.00 72 1020.4
20260902013056 21 164 0.0 0.0 0.00 0.00 0.00 72 1020.4
20260902011557 21 164 0.0 0.0 0.00 0.00 0.00 72 1020.3
20260902010055 21 164 0.0 0.0 0.00 0.00 0.00 72 1020.1
20260902004555 21 164 0.0 1.6 0.00 0.00 0.00 72 1020.0
20260902003055 21 164 0.0 0.0 0.00 0.00 0.00 72 1020.0
20260902001555 22 164 0.0 0.0 0.00 0.00 0.00 71 1020.1
20260902000100 22 164 0.0 0.0 0.00 0.00 0.00 70 1020.0
20260901234553 22 164 0.0 0.0 0.00 0.00 0.00 70 1020.0
20260901233105 22 164 0.0 0.0 0.00 0.00 0.00 68 1020.1
20260901231552 23 164 0.0 0.0 0.00 0.00 0.00 68 1020.0
20260901230056 23 164 0.0 0.0 0.00 0.00 0.00 68 1020.2
20260901224551 23 164 0.0 0.0 0.00 0.00 0.00 68 1019.9
20260901223106 23 164 0.0 1.6 0.00 0.00 0.00 67 1019.9
20260901221552 24 164 0.0 3.2 0.00 0.00 0.00 66 1019.9
20260901220051 24 164 1.6 3.2 0.00 0.00 0.00 65 1019.9
20260901214555 24 164 0.0 3.2 0.00 0.00 0.00 65 1020.0
20260901213047 24 164 0.0 0.0 0.00 0.00 0.00 63 1020.0
20260901211547 24 164 0.0 3.2 0.00 0.00 0.00 64 1020.0
20260901210100 24 164 0.0 3.2 0.00 0.00 0.00 64 1020.1
20260901204548 24 164 0.0 1.6 0.00 0.00 0.00 65 1020.1
20260901203105 24 164 0.0 3.2 0.00 0.00 0.00 65 1020.2
20260901201549 24 164 0.0 0.0 0.00 0.00 0.00 65 1020.4
20260901200054 24 164 0.0 1.6 0.00 0.00 0.00 66 1020.4
20260901194545 24 164 0.0 1.6 0.00 0.00 0.00 64 1020.4
20260901193043 24 164 0.0 3.2 0.00 0.00 0.00 65 1020.6
20260901191540 24 164 0.0 3.2 0.00 0.00 0.00 65 1020.8
20260901190058 24 164 0.0 1.6 0.00 0.00 0.00 65 1020.9
20260901184544 25 158 0.0 3.2 0.00 0.00 0.00 65 1021.1
20260901183040 25 158 0.0 1.6 0.00 0.00 0.00 63 1021.1
20260901181539 25 158 0.0 0.0 0.00 0.00 0.00 62 1021.3
20260901180037 26 158 0.0 0.0 0.00 0.00 0.00 61 1021.3
20260901174538 26 158 0.0 1.6 0.00 0.00 0.00 61 1021.3
20260901173031 25 158 0.0 1.6 0.00 0.00 0.00 63 1021.3
20260901171528 23 158 0.0 1.6 0.00 0.00 0.00 64 1021.6
20260901170023 23 158 0.0 3.2 0.00 0.00 0.00 69 1021.7
20260901164520 22 158 1.6 3.2 0.00 0.00 0.00 71 1021.8
20260901163025 22 158 0.0 3.2 0.00 0.00 0.00 71 1022.1